{"data":{"norad_id":59168,"intl_designator":"2024-044S","name":"STARLINK-31322","alt_names":[],"object_type":"PAYLOAD","status":"ACTIVE","operator":null,"country":"US","launch_date":"2024-03-04","launch_site_code":"AFETR","launch_vehicle":null,"mission":null,"orbit_class":"UNKNOWN","rcs_meters":null,"size_class":null,"mass_kg":null,"dimensions":null,"purposes":["comms"],"wikipedia_slug":null,"has_3d_model":false,"image_url":null,"decayed_at":null,"tle_current":{"epoch":"2026-05-25T01:44:47.784192Z","epoch_age_seconds":68475,"freshness":"FRESH","line1":"1 59168U 24044S   26145.07277528  .00000359  00000+0  22573-4 0  9998","line2":"2 59168  43.0036  35.9720 0001120 273.6519  86.4204 15.27582184125274","mean_motion":15.27582184,"eccentricity":0.000112,"inclination_deg":43.0036,"raan_deg":35.972,"arg_perigee_deg":273.6519,"mean_anomaly_deg":86.4204,"bstar":2.2573e-5,"rev_number":12527,"period_min":94.266613939509,"perigee_km":482.27410425544,"apogee_km":483.81100847607,"semimajor_km":6861.1795563658,"source":"CELESTRAK","updated_at":"2026-05-25T13:38:18.835811Z"}}}